EHI
0 0 0 0 0 0 0 0 0 0 0 0 0 0 0 0 0 0 0 0 0 0 0 0 0 0 0 0 0 0 0 0 1 3 3 2 1 2 4 8 13 12 7
0 0 0 0 0 0 0 0 0 0 0 0 0 0 0 0 0 0 0 0 0 0 0 0 0 0 0 0 0 0 0 0 0 3 8 9 7 5 4 6 11 10 6
0 0 0 0 0 0 0 0 0 0 0 0 0 0 0 0 0 0 0 0 0 0 0 0 0 0 0 0 0 0 0 0 0 4 14 22 21 12 4 4 7 8 6
0 0 0 0 0 0 0 0 0 0 0 0 0 0 0 0 0 0 0 0 0 0 0 0 0 0 0 0 0 0 0 0 0 3 14 30 38 26 11 5 5 6 5
0 0 0 0 0 0 0 0 0 0 0 0 0 0 0 0 0 0 0 0 0 0 0 0 0 0 0 0 0 0 0 0 0 2 8 23 38 37 25 15 9 6 4
0 0 0 0 0 0 0 0 0 0 0 0 0 0 0 0 0 0 0 0 0 0 0 0 0 0 0 0 0 0 0 0 0 0 2 10 22 31 32 25 18 12 9
0 0 0 0 0 0 0 0 0 0 0 0 0 0 0 0 0 0 0 0 0 0 0 0 0 0 0 0 0 0 0 0 0 0 0 2 7 16 23 26 26 22 17
0 0 0 0 0 0 0 0 0 0 0 0 0 0 0 0 0 0 0 0 0 0 0 0 0 0 0 0 0 0 0 0 0 0 0 0 1 4 10 19 26 28 25
0 0 0 0 0 0 0 0 0 0 0 0 0 0 0 0 0 0 0 0 0 0 0 0 0 0 0 0 0 0 0 0 0 0 0 0 0 0 3 10 18 25 28
0 0 0 0 0 0 0 0 0 0 0 0 0 0 0 0 0 0 0 0 0 0 0 0 0 0 0 0 0 0 0 0 0 0 0 0 0 0 1 3 8 14 18
0 0 0 0 0 0 0 0 0 0 0 0 0 0 0 0 0 0 0 0 0 0 0 0 0 0 0 0 0 0 0 0 0 0 0 0 1 1 0 1 2 4 6
0 0 0 0 0 0 0 0 0 0 0 0 0 0 0 0 0 0 0 0 0 0 0 0 0 0 0 0 0 0 0 0 0 0 0 0 1 2 2 1 1 1 1
0 0 0 0 0 0 0 0 0 0 0 0 0 0 0 0 0 0 0 0 0 0 0 0 0 0 0 0 0 0 0 0 0 0 0 0 1 2 3 3 1 1 0
0 0 0 0 0 0 0 0 0 0 0 0 0 0 0 0 0 0 0 0 0 0 0 0 0 0 0 0 0 0 0 0 0 0 0 0 0 1 2 3 2 0 0
0 0 0 0 0 0 0 0 0 0 0 0 0 0 0 0 0 0 0 0 0 0 0 0 0 0 0 0 0 0 0 0 0 0 0 0 0 0 0 1 1 0 0
0 0 0 0 0 0 0 0 0 0 0 0 0 0 0 0 0 0 0 0 0 0 0 0 0 0 0 0 0 0 0 0 0 0 0 0 0 0 0 0 0 0 0
0 0 0 0 0 0 0 0 0 0 0 0 0 0 0 0 0 0 0 0 0 0 0 0 0 0 0 0 0 0 0 0 0 0 0 0 0 0 0 0 0 0 0
0 0 0 0 0 0 0 0 0 0 0 0 0 0 0 0 0 0 0 0 0 0 0 0 0 0 0 0 0 0 0 0 0 0 0 0 0 0 0 0 0 0 0
0 0 0 0 0 0 0 0 0 0 0 0 0 0 0 0 0 0 0 0 0 0 0 0 0 0 0 0 0 0 0 0 0 0 0 0 0 0 0 0 0 0 0
0 0 0 0 0 0 0 0 0 0 0 0 0 0 0 0 0 0 0 0 0 0 0 0 0 0 0 0 0 0 0 0 0 0 0 0 0 0 0 0 0 0 0
0 0 0 0 0 0 0 0 0 0 0 0 0 0 0 0 0 0 0 0 0 0 0 0 0 0 0 0 0 0 0 0 0 0 0 0 0 0 0 0 0 0 0
0 0 0 0 0 0 0 0 0 0 0 0 0 0 0 0 0 0 0 0 0 0 0 0 0 0 0 0 0 0 0 0 0 0 0 0 0 0 0 0 0 0 0
0 0 0 0 0 0 0 0 0 0 0 0 0 0 0 0 0 0 0 0 0 0 0 0 0 0 0 0 0 0 0 0 0 0 0 0 0 0 0 0 0 0 0
0 0 0 0 0 0 0 0 0 0 0 0 0 0 0 0 0 0 0 0 0 0 0 0 0 0 0 0 0 0 0 0 0 0 0 0 0 0 0 0 0 0 0
0 0 0 0 0 0 0 0 0 0 0 0 0 0 0 0 0 0 0 0 0 0 0 0 0 0 0 0 0 0 0 0 0 0 0 0 0 0 0 0 0 0 0
0 0 0 0 0 0 0 0 0 0 0 0 0 0 0 0 0 0 0 0 0 0 0 0 0 0 0 0 0 0 0 0 0 0 0 0 0 0 0 0 0 0 0
Wind_Speed
6 7 6 6 6 6 7 8 9 11 12 12 11 13 13 12 12 11 10 23 27 26 25 24 24 23 22 20 23 26 26 26 26 25 24 24 23 23 22 22 22 22 22
7 7 7 6 6 7 8 8 10 10 10 10 12 13 13 13 10 12 12 15 23 24 24 23 23 22 22 21 21 25 28 28 28 26 25 25 24 23 23 22 22 22 22
7 7 7 6 7 8 9 8 9 7 9 10 12 13 12 11 12 14 13 11 11 18 22 22 22 21 21 21 19 21 27 29 28 27 26 25 24 24 24 23 22 22 22
8 7 7 6 7 7 7 9 7 9 9 10 11 11 11 11 14 13 11 11 9 9 14 21 21 21 20 20 19 17 23 27 29 28 28 27 25 25 25 25 23 22 22
8 7 6 5 8 7 7 9 8 9 10 11 12 11 10 11 12 12 11 11 9 9 8 16 21 21 20 19 18 16 17 23 28 29 29 28 27 26 26 25 25 24 23
9 8 6 6 8 6 6 7 9 9 8 10 13 12 11 12 11 7 8 8 8 9 10 12 11 14 19 21 19 16 14 16 24 29 28 28 28 27 26 25 25 24 24
9 8 7 7 7 6 8 9 8 10 8 8 10 11 10 10 9 4 5 6 6 8 10 12 10 10 10 19 19 18 15 12 15 24 28 27 27 27 27 25 24 24 24
9 10 8 8 8 7 7 8 9 7 8 6 7 10 8 6 3 8 7 6 5 7 10 13 12 12 11 8 14 19 16 14 12 14 24 26 26 27 27 25 23 23 24
10 9 9 9 9 7 7 7 8 8 9 7 4 6 7 7 11 5 5 5 6 7 8 10 12 13 13 9 10 13 16 15 13 11 16 24 25 26 26 24 23 22 23
10 10 9 10 9 8 8 8 7 7 9 9 7 6 7 8 8 8 4 4 7 8 8 10 12 12 11 9 11 16 15 14 13 11 11 17 24 25 28 27 24 22 21
9 11 11 9 9 9 9 9 9 8 7 8 8 8 9 9 10 10 13 8 7 6 6 9 10 9 10 9 8 12 16 14 14 13 11 11 18 25 27 27 26 23 22
7 8 12 9 10 10 10 10 9 8 8 9 8 7 8 8 7 8 11 13 11 7 7 7 8 8 8 8 10 16 16 14 14 14 13 10 11 19 25 27 28 27 25
9 10 11 9 10 11 12 11 9 9 8 9 8 8 8 9 9 9 11 11 12 9 6 6 5 9 8 5 8 18 14 15 14 15 15 12 8 10 16 23 27 30 29
10 12 12 13 14 14 14 11 10 10 8 7 9 10 8 9 9 9 10 10 11 8 5 6 7 7 5 7 12 18 10 15 14 13 14 13 9 8 11 14 22 27 28
11 13 15 15 16 16 15 13 10 10 9 9 9 10 9 9 9 9 9 9 9 11 10 5 4 5 8 8 13 10 9 13 14 12 12 13 10 7 10 13 15 21 24
12 14 15 16 17 16 15 11 9 9 8 9 8 9 9 8 8 8 8 8 8 9 9 5 6 8 10 11 15 11 10 17 13 10 10 13 12 8 9 12 13 17 23
13 14 16 17 18 17 13 9 8 8 8 8 8 8 9 8 6 6 6 6 6 6 9 9 7 8 10 10 10 9 9 8 7 8 8 12 13 9 9 12 13 16 22
12 13 15 16 16 16 13 10 9 8 7 8 8 7 7 6 7 6 6 6 5 6 8 12 10 9 10 9 9 10 9 7 5 6 7 10 12 9 8 11 13 16 19
12 13 14 15 16 14 11 10 10 10 10 10 10 10 9 8 7 6 7 5 5 7 7 9 11 10 8 7 7 8 8 6 5 4 4 8 12 9 6 9 12 15 18
11 12 13 14 14 13 8 7 9 10 10 11 11 11 11 10 9 7 8 7 7 8 7 7 9 9 7 6 4 4 4 3 3 2 1 4 9 9 6 8 11 13 16
12 12 13 14 14 12 6 5 8 9 9 10 11 11 12 17 20 13 11 9 9 7 7 6 7 8 7 5 4 4 3 3 2 2 0 1 3 3 3 5 7 11 15
11 11 11 13 14 13 19 21 13 8 8 9 10 11 12 12 19 18 21 19 17 12 9 6 6 8 8 8 7 6 5 3 1 1 1 1 2 3 2 3 7 11 13
10 11 11 11 13 17 23 21 21 9 8 8 9 10 12 14 18 6 13 17 15 19 17 9 7 7 8 9 9 8 7 5 3 3 1 1 2 3 2 3 9 12 13
8 7 9 11 11 17 24 19 19 8 6 8 9 10 11 12 15 12 9 10 8 8 12 9 6 7 8 9 7 7 8 7 6 4 1 1 2 3 2 2 9 12 13
6 7 8 9 11 15 24 20 15 5 6 8 9 11 14 11 22 23 13 12 11 8 13 17 16 14 15 15 11 6 6 4 3 1 1 2 1 3 2 1 4 11 12
7 9 10 9 10 11 21 23 15 5 7 8 8 11 18 20 23 23 13 12 13 10 10 11 11 12 9 10 13 5 4 4 4 2 1 2 1 1 2 0 1 5 8
Wind_Direction
335 332 327 325 327 330 330 329 327 326 328 322 319 320 317 313 306 307 308 307 307 307 305 304 302 299 296 278 250 235 226 218 210 206 204 203 199 197 196 195 194 193 191
334 333 327 325 331 332 328 326 318 324 323 319 317 317 312 306 304 306 303 304 306 307 307 305 303 301 297 292 263 239 229 222 213 207 204 203 200 198 197 197 196 195 195
332 332 326 329 333 330 327 325 315 325 321 320 317 313 307 305 305 304 302 298 301 307 309 313 310 304 297 295 283 251 233 225 216 208 205 202 200 199 198 198 197 197 196
332 331 324 327 328 328 329 324 328 329 322 321 317 311 305 304 302 299 297 298 300 304 316 322 322 316 307 301 294 271 242 230 221 211 205 202 201 200 199 198 198 198 196
329 326 315 322 325 324 325 325 332 324 322 322 315 308 305 300 293 294 297 299 305 312 326 328 329 327 320 312 304 287 259 239 228 216 207 202 200 200 200 199 198 198 198
325 323 310 321 320 319 320 318 319 319 318 318 315 308 300 289 282 282 291 306 311 331 337 329 327 327 328 328 323 312 286 254 235 222 213 206 201 200 200 200 198 198 199
322 317 315 317 314 313 315 314 317 316 319 323 317 314 296 274 272 292 301 300 315 341 335 332 326 327 323 326 327 328 319 293 257 229 216 211 206 202 200 200 199 198 198
319 322 318 315 309 307 309 311 314 311 319 331 317 317 314 307 345 320 294 296 327 336 334 331 321 324 319 313 313 321 332 327 302 254 219 213 211 207 203 201 201 199 198
317 312 310 310 307 302 302 303 300 310 314 311 298 300 306 315 324 277 283 316 333 322 324 319 320 317 310 310 305 313 327 338 323 294 240 213 212 212 207 203 203 203 201
315 315 313 309 305 304 299 297 312 302 301 305 303 273 281 293 297 308 306 314 308 315 311 317 315 308 306 302 299 306 322 340 336 313 280 228 211 212 210 204 203 207 206
316 318 318 310 306 305 297 292 295 288 290 289 291 290 285 279 270 285 298 308 308 295 295 303 303 302 303 303 302 306 330 341 344 334 311 271 222 212 211 205 202 207 212
316 312 316 308 304 301 296 293 287 282 284 280 280 278 281 283 286 287 289 300 303 301 296 292 295 300 302 302 307 325 334 340 348 347 336 313 257 220 211 205 201 204 212
323 315 310 304 302 296 294 291 287 284 277 273 270 273 274 274 279 280 282 290 295 299 289 284 287 296 297 321 325 334 329 334 341 345 341 329 291 239 217 207 201 200 208
314 308 310 307 302 297 295 290 287 281 276 273 278 274 272 271 272 272 276 287 295 296 287 277 293 289 319 331 317 325 319 324 327 335 337 333 310 255 223 208 203 200 202
313 317 312 309 307 303 297 289 280 277 277 277 274 272 271 272 272 271 271 273 283 295 300 286 283 307 317 307 306 308 307 306 309 320 333 336 319 270 225 208 202 200 197
315 316 317 317 317 317 312 299 284 277 277 279 276 275 277 276 276 275 273 271 270 278 286 285 286 289 292 294 297 301 297 296 295 306 329 337 327 286 231 208 198 191 189
320 322 324 326 328 330 329 322 310 293 286 286 288 290 293 296 301 303 297 292 291 292 291 294 287 287 282 281 287 287 283 277 273 294 325 336 330 301 242 210 195 187 184
324 327 330 332 336 341 344 346 341 338 328 324 324 320 318 326 325 322 318 312 309 299 297 299 297 292 282 277 275 276 277 269 257 284 321 338 333 304 247 210 193 186 183
327 332 336 338 340 341 353 7 9 8 4 360 357 353 342 336 341 338 333 332 316 312 305 300 300 294 285 274 275 274 267 257 256 263 320 348 338 310 249 207 191 185 183
333 336 337 337 339 336 343 14 16 13 8 5 4 359 347 347 348 343 344 346 329 319 313 313 309 304 293 280 272 273 274 242 241 233 332 348 331 311 246 205 193 187 183
340 335 337 339 340 338 345 46 27 10 3 360 357 353 344 355 353 2 355 356 345 332 329 331 328 328 327 334 337 331 298 272 243 209 91 357 334 313 240 208 196 189 183
335 335 337 338 341 340 4 32 38 12 0 357 351 347 341 344 350 0 358 359 356 347 344 343 336 334 332 335 338 339 330 309 298 316 87 17 356 288 237 189 187 187 185
331 333 332 336 338 335 1 31 30 20 359 353 349 347 344 343 345 339 352 355 350 352 349 348 330 328 325 332 334 337 337 330 326 330 9 36 4 300 241 195 184 186 186
326 325 323 331 335 338 353 27 31 17 355 347 343 342 338 334 330 4 355 343 340 346 342 340 332 325 331 329 332 328 311 299 281 261 213 93 11 305 263 188 188 185 184
318 322 323 327 332 332 344 10 34 3 3 346 345 348 344 337 344 5 3 346 344 352 349 349 354 354 355 350 358 350 330 312 291 247 168 119 41 316 296 188 185 183 178
320 330 328 325 322 321 336 353 24 16 7 357 349 346 343 355 358 2 5 351 350 357 346 341 344 346 344 344 4 360 326 316 307 305 87 122 93 346 289 344 149 166 167